CZ-6A DEB

Satellite information

Favourite Embed

Satellite Type and Status

DEBRISIN ORBIT

Key statistics

Satellite CZ-6A DEB at a glance.

Uptime

1029

Days in orbit

Revolutions

≈ 14.6

Per day

Orbit

SSO

Sun Synchronous Orbit

Inclination

99.1

Latest

Satellite identification and parameters

Extended collection of information and parameters for CZ-6A DEB.

Object identification

Identified? True

Debris? True

Object name: CZ-6A DEB

International designator: 2022-151CY

Object number (NORAD): 54353

Object ID (CCSDS): 54353

Country: PEOPLES REPUBLIC OF CHINA (PRC)

Current information (Y/N): Y

RCS size: SMALL

Orbital parameters

Period: 98.668 minutes

Inclination: 99.071 deg

SMA: 7073.106 km

Apoapsis: 783.04 km

Periapsis: 606.902 km

RAAN: 340.7045 deg

Eccentricy: 0.01245125

Argument of periapsis: 161.2718 deg

Mean anomaly: 199.3121 deg

Mean motion: 14.59444248 rev/day

Mean motion (dot): 0.00036524 rev/day2

B* drag term: 0.006890629 1/REarth

Two-line elements (TLE)

Creation date: Sept. 3, 2025, 2:21 a.m.

Reference frame: TEME

Reference center: EARTH

Epoch: Sept. 2, 2025, 6:24 p.m. UTC

TLE line 0: 0 CZ-6A DEB

TLE line 1: 1 54353U 22151CY 25245.76667115 .00036524 00000-0 68906-2 0 9999

TLE line 2: 2 54353 99.0710 340.7045 0124513 161.2718 199.3121 14.59444248147512

Live tracking on map

Real-time ground track for satellite CZ-6A DEB.

In-orbit conjunctions

A list of the most updated potential collisions computed for object CZ-6A DEB.

Target Orbit TCA Probability of collision Miss distance Type
SL-14 R/B LEO 2025-05-21 08:43:06 0.0002214424 416.0 (m) ROCKET BODY
COSMOS 886 DEB MEO 2024-11-15 23:39:33 0.0001317198 354.0 (m) DEBRIS

Associated space launch

Chinese satellite reported for atmospheric/ocean/environmental/spatial parameter research purposes, details TBD.

CZ-6A DEB was lifted into orbit during the mission ‘Long March 6A | Yunhai 3’, on board a Long March 6A space rocket.

The launch took place on Nov. 11, 2022, 10:52 p.m. from Launch Complex 9A.

For more information about the launch, click the button.

Launch to space Long March 6A | Yunhai 3
Long March 6A | Yunhai 3

Agency: N/A

Status: Launch Successful

Launch date: Nov. 11, 2022, 10:52 p.m. UTC

Rocket: Long March 6A

Launch pad: Launch Complex 9A

Location: Taiyuan Satellite Launch Center, People's Republic of China

...

Latest news about this satellite

There are no fresh news available about this satellite. Check back as we update our databases every day.


Newsletter sign-up

Weekly statistics, charts and insights to help you stay on top of the space industry.